Weather History for K1P1 - May, 2012

Change the Weather History Date:

Monday, May 7, 2012

  Actual Average Record
Temperature  
Mean Temperature 51 °F -  
Max Temperature 71 °F - - ()
Min Temperature 31 °F - - ()
Degree Days  
Heating Degree Days 14    
Growing Degree Days 1 (Base 50)    
Moisture  
Dew Point 35 °F    
Average Humidity 59    
Maximum Humidity 100    
Minimum Humidity 23    
Precipitation  
Precipitation 0.00 in - - ()
Sea Level Pressure  
Sea Level Pressure 30.09 in    
Wind  
Wind Speed 1 mph (ESE)    
Max Wind Speed 8 mph    
Max Gust Speed -    
Visibility 9 miles    
Events      
T = Trace of Precipitation, MM = Missing Value Source: NWS Daily Summary

Daily Weather History Graph

Daily Weather History Graph

Search for Another Location

Airport or City:

Trip Planner

Search our weather history database for the weather conditions in past years. The results will help you decide how hot, cold, wet, or windy it might be!

Date:

Astronomy

May. 07, 2012 Rise Set
Actual Time 5:30 AM EDT 7:57 PM EDT
Civil Twilight 4:58 AM EDT 8:29 PM EDT
Nautical Twilight 4:17 AM EDT 9:10 PM EDT
Astronomical Twilight 3:32 AM EDT 9:55 PM EDT
Moon 10:09 PM EDT (5/7) 6:30 AM EDT (5/7)
Length of Visible Light 15h 31m
Length of Day
14h 26m
Waning Gibbous, 97% of the Moon is Illuminated
May 7
Waning Gibbous
May 12
Last Quarter
May 20
New
May 28
First Quarter
Jun 4
Full

Hourly Weather History & Observations

Time (EDT) Temp. Dew Point Humidity Pressure Visibility Wind Dir Wind Speed Gust Speed Precip Events Conditions
12:15 AM 40.5 °F 37.6 °F 89% 30.09 in 10.0 mi Calm Calm - N/A   Clear
12:35 AM 40.1 °F 37.4 °F 90% 30.10 in 10.0 mi Calm Calm - N/A   Clear
1:15 AM 38.1 °F 36.9 °F 95% 30.10 in 10.0 mi Calm Calm - N/A   Clear
1:35 AM 37.4 °F 36.3 °F 96% 30.11 in 10.0 mi Calm Calm - N/A   Clear
1:55 AM 37.0 °F 36.3 °F 97% 30.11 in 10.0 mi Calm Calm - N/A   Clear
2:15 AM 36.3 °F 35.8 °F 98% 30.11 in 10.0 mi Calm Calm - N/A   Clear
2:35 AM 35.8 °F 35.4 °F 99% 30.11 in 10.0 mi Calm Calm - N/A   Clear
2:55 AM 35.2 °F 35.1 °F 99% 30.11 in 7.0 mi Calm Calm - N/A   Clear
3:15 AM 34.7 °F 34.7 °F 100% 30.11 in 10.0 mi Calm Calm - N/A   Clear
3:35 AM 34.0 °F 34.0 °F 100% 30.12 in 7.0 mi Calm Calm - N/A   Clear
3:55 AM 33.8 °F 33.8 °F 100% 30.12 in 7.0 mi Calm Calm - N/A   Clear
4:15 AM 32.9 °F 32.9 °F 100% 30.12 in 7.0 mi Calm Calm - N/A   Clear
4:35 AM 32.5 °F 32.5 °F 100% 30.13 in 3.0 mi Calm Calm - N/A   Clear
4:55 AM 32.4 °F 32.4 °F 100% 30.13 in 3.0 mi Calm Calm - N/A   Clear
5:15 AM 32.4 °F 32.4 °F 100% 30.14 in 7.0 mi Calm Calm - N/A   Clear
5:35 AM 32.0 °F 32.0 °F 100% 30.14 in 5.0 mi Calm Calm - N/A   Clear
5:55 AM 31.8 °F 31.8 °F 100% 30.15 in 4.0 mi Calm Calm - N/A   Clear
6:15 AM 31.8 °F 31.8 °F 100% 30.15 in 5.0 mi Calm Calm - N/A   Clear
6:35 AM 32.0 °F 32.0 °F 100% 30.16 in 5.0 mi Calm Calm - N/A   Clear
6:55 AM 33.3 °F 33.3 °F 100% 30.17 in 10.0 mi Calm Calm - N/A   Clear
7:15 AM 34.9 °F 34.9 °F 100% 30.17 in 10.0 mi Calm Calm - N/A   Clear
7:35 AM 36.7 °F 35.6 °F 96% 30.16 in 10.0 mi Calm Calm - N/A   Clear
7:55 AM 38.5 °F 34.3 °F 85% 30.16 in 10.0 mi Calm Calm - N/A   Clear
8:15 AM 40.8 °F 34.7 °F 79% 30.16 in 10.0 mi Calm Calm - N/A   Clear
8:35 AM 43.5 °F 34.9 °F 72% 30.16 in 10.0 mi Calm Calm - N/A   Clear
8:55 AM 46.6 °F 34.9 °F 64% 30.15 in 10.0 mi Calm Calm - N/A   Clear
9:15 AM 49.5 °F 34.3 °F 56% 30.14 in 10.0 mi Calm Calm - N/A   Clear
9:35 AM 52.2 °F 34.9 °F 52% 30.14 in 10.0 mi Calm Calm - N/A   Clear
9:55 AM 55.0 °F 34.5 °F 46% 30.14 in 10.0 mi Calm Calm - N/A   Clear
10:15 AM 57.7 °F 36.0 °F 44% 30.14 in 10.0 mi Calm Calm - N/A   Clear
10:35 AM 59.9 °F 40.1 °F 48% 30.14 in 10.0 mi Calm Calm - N/A   Clear
10:55 AM 60.8 °F 41.7 °F 49% 30.13 in 10.0 mi Calm Calm - N/A   Clear
11:15 AM 62.6 °F 39.2 °F 42% 30.13 in 10.0 mi NE 3.5 mph - N/A   Clear
11:35 AM 62.6 °F 38.1 °F 40% 30.13 in 10.0 mi ENE 3.5 mph - N/A   Clear
11:55 AM 63.5 °F 37.4 °F 38% 30.12 in 10.0 mi ENE 3.5 mph - N/A   Clear
12:15 PM 64.4 °F 33.8 °F 32% 30.12 in 10.0 mi ESE 3.5 mph - N/A   Clear
12:35 PM 64.4 °F 33.4 °F 32% 30.11 in 10.0 mi SW 3.5 mph - N/A   Clear
12:55 PM 65.5 °F 35.8 °F 33% 30.10 in 10.0 mi NE 5.8 mph - N/A   Clear
1:15 PM 66.0 °F 32.4 °F 29% 30.09 in 10.0 mi Calm Calm - N/A   Clear
1:35 PM 67.3 °F 35.2 °F 31% 30.09 in 10.0 mi SE 4.6 mph - N/A   Clear
1:55 PM 67.5 °F 37.0 °F 33% 30.09 in 10.0 mi ENE 5.8 mph - N/A   Clear
2:35 PM 68.7 °F 37.4 °F 32% 30.07 in 10.0 mi SW 4.6 mph - N/A   Scattered Clouds
3:15 PM 70.0 °F 37.6 °F 31% 30.05 in 10.0 mi ESE 4.6 mph - N/A   Clear
3:35 PM 70.0 °F 32.2 °F 25% 30.06 in 10.0 mi ESE 4.6 mph - N/A   Clear
3:55 PM 70.0 °F 33.4 °F 26% 30.05 in 10.0 mi South 5.8 mph - N/A   Clear
4:15 PM 70.5 °F 32.7 °F 25% 30.04 in 10.0 mi Calm Calm - N/A   Clear
4:35 PM 70.7 °F 33.4 °F 25% 30.03 in 10.0 mi SW 4.6 mph - N/A   Clear
4:55 PM 70.9 °F 32.2 °F 24% 30.03 in 10.0 mi SSE 5.8 mph - N/A   Clear
5:15 PM 71.1 °F 32.0 °F 24% 30.02 in 10.0 mi South 4.6 mph - N/A   Clear
5:35 PM 70.7 °F 31.3 °F 23% 30.02 in 10.0 mi Calm Calm - N/A   Clear
5:55 PM 70.7 °F 31.8 °F 24% 30.01 in 10.0 mi SSE 4.6 mph - N/A   Clear
6:15 PM 70.2 °F 32.4 °F 25% 30.01 in 10.0 mi South 3.5 mph - N/A   Clear
6:35 PM 69.3 °F 33.1 °F 26% 30.01 in 10.0 mi SSE 5.8 mph - N/A   Clear
6:55 PM 68.9 °F 33.8 °F 27% 30.01 in 10.0 mi South 3.5 mph - N/A   Clear
7:15 PM 67.6 °F 35.1 °F 30% 30.01 in 10.0 mi Calm Calm - N/A   Clear
7:35 PM 66.4 °F 35.4 °F 32% 30.02 in 10.0 mi Calm Calm - N/A   Clear
7:55 PM 64.6 °F 36.3 °F 35% 30.02 in 10.0 mi Calm Calm - N/A   Clear
8:15 PM 62.8 °F 39.4 °F 42% 30.03 in 10.0 mi East 8.1 mph - N/A   Clear
8:35 PM 62.4 °F 38.5 °F 41% 30.04 in 10.0 mi Calm Calm - N/A   Clear
8:55 PM 61.7 °F 39.2 °F 43% 30.05 in 10.0 mi ESE 6.9 mph - N/A   Clear
9:15 PM 59.7 °F 39.4 °F 47% 30.06 in 10.0 mi Calm Calm - N/A   Clear
9:35 PM 59.2 °F 38.7 °F 47% 30.06 in 10.0 mi East 5.8 mph - N/A   Clear
9:55 PM 58.6 °F 37.8 °F 46% 30.06 in 10.0 mi East 4.6 mph - N/A   Clear
10:15 PM 58.1 °F 37.4 °F 46% 30.06 in 10.0 mi East 4.6 mph - N/A   Clear
10:35 PM 55.6 °F 39.0 °F 54% 30.06 in 10.0 mi ENE 3.5 mph - N/A   Clear
10:55 PM 55.0 °F 38.1 °F 53% 30.06 in 10.0 mi ENE 3.5 mph - N/A   Clear
11:15 PM 54.3 °F 38.5 °F 55% 30.06 in 10.0 mi ENE 3.5 mph - N/A   Clear
11:35 PM 53.2 °F 38.8 °F 58% 30.06 in 10.0 mi ENE 4.6 mph - N/A   Clear
11:55 PM 52.5 °F 39.0 °F 60% 30.06 in 10.0 mi Calm Calm - N/A   Clear